TimeMDT,TemperatureF,Dew PointF,Humidity,Sea Level PressureIn,VisibilityMPH,Wind Direction,Wind SpeedMPH,Gust SpeedMPH,PrecipitationIn,Events,Conditions,WindDirDegrees,DateUTC
12:53 AM,17.1,12.0,81,30.43,4.0,NNE,6.9,-,0.00,Snow,Light Snow,30,2013-04-23 06:53:00
1:51 AM,14.0,10.4,86,30.27,9.0,NNE,5.8,-,0.00,,Scattered Clouds,30,2013-04-23 07:51:00
1:53 AM,14.0,10.0,84,30.43,9.0,NNE,5.8,-,0.00,,Partly Cloudy,30,2013-04-23 07:53:00
2:24 AM,12.2,8.6,85,30.26,10.0,North,5.8,-,N/A,,Mostly Cloudy,360,2013-04-23 08:24:00
2:53 AM,12.9,9.0,84,30.43,6.0,North,3.5,-,N/A,,Overcast,350,2013-04-23 08:53:00
3:16 AM,12.2,8.6,85,30.24,9.0,Calm,Calm,-,N/A,,Scattered Clouds,0,2013-04-23 09:16:00
3:53 AM,12.2,8.6,85,30.24,9.0,NW,3.5,-,N/A,,Clear,310,2013-04-23 09:53:00
4:53 AM,9.0,6.1,88,30.42,10.0,West,3.5,-,N/A,,Clear,260,2013-04-23 10:53:00
5:53 AM,10.0,6.1,84,30.40,10.0,SSW,5.8,-,N/A,,Clear,210,2013-04-23 11:53:00
6:53 AM,10.9,8.1,88,30.41,10.0,West,4.6,-,N/A,,Clear,280,2013-04-23 12:53:00
7:53 AM,16.0,10.9,81,30.39,10.0,SW,12.7,-,N/A,,Clear,230,2013-04-23 13:53:00
8:53 AM,19.0,14.0,81,30.38,10.0,SW,13.8,-,N/A,,Clear,220,2013-04-23 14:53:00
9:53 AM,23.0,15.1,72,30.35,10.0,SW,13.8,-,N/A,,Clear,230,2013-04-23 15:53:00
10:53 AM,26.1,16.0,66,30.33,10.0,WSW,13.8,23.0,N/A,,Scattered Clouds,250,2013-04-23 16:53:00
11:53 AM,28.9,18.0,64,30.30,10.0,WSW,15.0,20.7,N/A,,Scattered Clouds,240,2013-04-23 17:53:00
12:01 PM,30.2,17.6,60,30.17,10.0,West,15.0,21.9,N/A,,Mostly Cloudy,260,2013-04-23 18:01:00
12:08 PM,28.4,17.6,64,30.17,10.0,West,13.8,-,N/A,,Mostly Cloudy,260,2013-04-23 18:08:00
12:53 PM,30.9,16.0,54,30.27,10.0,West,15.0,21.9,N/A,,Mostly Cloudy,280,2013-04-23 18:53:00
1:53 PM,34.0,15.1,46,30.24,10.0,WSW,13.8,19.6,N/A,,Partly Cloudy,250,2013-04-23 19:53:00
2:53 PM,37.0,15.1,41,30.22,10.0,WNW,16.1,23.0,N/A,,Partly Cloudy,290,2013-04-23 20:53:00
3:53 PM,37.0,12.0,36,30.20,10.0,WNW,10.4,18.4,N/A,,Clear,300,2013-04-23 21:53:00
4:53 PM,39.0,3.9,23,30.19,10.0,West,13.8,19.6,N/A,,Clear,270,2013-04-23 22:53:00
5:53 PM,37.9,8.1,29,30.19,10.0,West,10.4,-,N/A,,Clear,280,2013-04-23 23:53:00
6:53 PM,37.9,3.0,23,30.19,10.0,North,10.4,23.0,N/A,,Clear,360,2013-04-24 00:53:00
7:53 PM,30.0,7.0,38,30.22,10.0,North,5.8,-,N/A,,Clear,10,2013-04-24 01:53:00
8:53 PM,26.1,8.1,47,30.24,10.0,North,5.8,-,N/A,,Clear,360,2013-04-24 02:53:00
9:53 PM,28.0,6.1,39,30.24,10.0,Calm,Calm,-,N/A,,Clear,0,2013-04-24 03:53:00
10:53 PM,24.1,12.9,62,30.24,10.0,SSW,4.6,-,N/A,,Clear,200,2013-04-24 04:53:00
11:53 PM,23.0,15.1,72,30.22,10.0,West,4.6,-,N/A,,Clear,270,2013-04-24 05:53:00